This is the latest recevied weather packets stored in our database for station/object YS1AHL-23. If no packets are shown the sender has not sent any weather packets the latest 10 day(s).
| Time | Temp. | Humidity | Pressure | Rain* | Wind** | Luminosity | Snow |
|---|---|---|---|---|---|---|---|
| 1777756854 | 7.22° C | 73% | 1011 hPa | 0 mm | - | - | - |
| 1777756253 | 6.67° C | 74% | 1011 hPa | 0 mm | - | - | - |
| 1777755652 | 6.11° C | 76% | 1011 hPa | 0 mm | - | - | - |
| 1777755052 | 6.11° C | 71% | 1011 hPa | 0 mm | - | - | - |
| 1777754512 | 6.11° C | 62% | 1011 hPa | 0 mm | - | - | - |
| 1777753851 | 6.67° C | 62% | 1011 hPa | 0 mm | - | - | - |
| 1777753250 | 6.67° C | 62% | 1011 hPa | 0 mm | - | - | - |
| 1777752710 | 7.22° C | 62% | 1011 hPa | 0 mm | - | - | - |
| 1777752649 | 7.22° C | 62% | 1011 hPa | 0 mm | - | - | - |
| 1777752049 | 7.78° C | 62% | 1011 hPa | 0 mm | - | - | - |
| 1777751509 | 7.78° C | 63% | 1011 hPa | 0 mm | - | - | - |
| 1777751449 | 7.78° C | 63% | 1011 hPa | 0 mm | - | - | - |
| 1777750247 | 7.78° C | 64% | 1011 hPa | 0 mm | - | - | - |
| 1777749647 | 7.78° C | 67% | 1011 hPa | 0 mm | - | - | - |
| 1777749046 | 7.22° C | 72% | 1011 hPa | 0 mm | - | - | - |
| 1777748446 | 7.22° C | 72% | 1011 hPa | 0 mm | - | - | - |
| 1777747838 | 7.22° C | 72% | 1011 hPa | 0 mm | - | - | - |
| 1777747237 | 7.22° C | 72% | 1011 hPa | 0 mm | - | - | - |
| 1777746637 | 7.22° C | 73% | 1012 hPa | 0 mm | - | - | - |
| 1777746036 | 6.67° C | 74% | 1011 hPa | 0 mm | - | - | - |
| 1777745436 | 6.11° C | 76% | 1011 hPa | 0 mm | - | - | - |
| 1777744835 | 5.56° C | 80% | 1011 hPa | 0 mm | - | - | - |
| 1777744235 | 5.56° C | 80% | 1011 hPa | 0 mm | - | - | - |
| 1777743033 | 5.56° C | 79% | 1012 hPa | 0 mm | - | - | - |
| 1777742433 | 5.56° C | 78% | 1012 hPa | 0 mm | - | - | - |
* Rain latest hour (hover to see other rain measurements)
** Current wind speed in m/s (hover to see current wind gust speed)